Year,Month,Day,Hour,Minute,Value (Times are PST for temperature in C)
2011,04,15,00,00,3.80
2011,04,15,00,01,3.80
2011,04,15,00,02,3.80
2011,04,15,00,03,3.70
2011,04,15,00,04,3.70
2011,04,15,00,05,3.70
2011,04,15,00,06,3.70
2011,04,15,00,07,3.70
2011,04,15,00,08,3.70
2011,04,15,00,09,3.80
2011,04,15,00,10,3.80
2011,04,15,00,11,3.80
2011,04,15,00,12,3.80
2011,04,15,00,13,3.80
2011,04,15,00,16,3.80
2011,04,15,00,17,3.80
2011,04,15,00,18,3.80
2011,04,15,00,19,3.80
2011,04,15,00,20,3.80
2011,04,15,00,21,3.70
2011,04,15,00,22,3.70
2011,04,15,00,23,3.70
2011,04,15,00,24,3.60
2011,04,15,00,25,3.60
2011,04,15,00,26,3.50
2011,04,15,00,27,3.50
2011,04,15,00,28,3.50
2011,04,15,00,29,3.50
2011,04,15,00,30,3.40
2011,04,15,00,31,3.40
2011,04,15,00,32,3.40
2011,04,15,00,33,3.40
2011,04,15,00,34,3.30
2011,04,15,00,35,3.30
2011,04,15,00,36,3.30
2011,04,15,00,37,3.30
2011,04,15,00,38,3.30
2011,04,15,00,39,3.30
2011,04,15,00,40,3.30
2011,04,15,00,41,3.30
2011,04,15,00,42,3.20
2011,04,15,00,43,3.20
2011,04,15,00,44,3.20
2011,04,15,00,45,3.20
2011,04,15,00,46,3.10
2011,04,15,00,47,3.10
2011,04,15,00,48,3.10
2011,04,15,00,49,3.10
2011,04,15,00,50,3.10
2011,04,15,00,51,3.10
2011,04,15,00,52,3.10
2011,04,15,00,53,3.10
2011,04,15,00,54,3.10
2011,04,15,00,55,3.10
2011,04,15,00,56,3.10
2011,04,15,00,57,3.10
2011,04,15,00,58,3.10
2011,04,15,00,59,3.10
2011,04,15,01,00,3.10
2011,04,15,01,01,3.10
2011,04,15,01,02,3.10
2011,04,15,01,03,3.10
2011,04,15,01,04,3.10
2011,04,15,01,05,3.10
2011,04,15,01,06,3.10
2011,04,15,01,07,3.10
2011,04,15,01,08,3.20
2011,04,15,01,09,3.20
2011,04,15,01,10,3.20
2011,04,15,01,11,3.20
2011,04,15,01,12,3.20
2011,04,15,01,13,3.20
2011,04,15,01,14,3.20
2011,04,15,01,15,3.20
2011,04,15,01,16,3.20
2011,04,15,01,17,3.20
2011,04,15,01,18,3.20
2011,04,15,01,19,3.20
2011,04,15,01,20,3.20
2011,04,15,01,21,3.20
2011,04,15,01,22,3.20
2011,04,15,01,23,3.20
2011,04,15,01,24,3.20
2011,04,15,01,25,3.20
2011,04,15,01,26,3.20
2011,04,15,01,27,3.20
2011,04,15,01,28,3.30
2011,04,15,01,29,3.30
2011,04,15,01,30,3.30
2011,04,15,01,31,3.30
2011,04,15,01,32,3.30
2011,04,15,01,33,3.30
2011,04,15,01,34,3.30
2011,04,15,01,35,3.30
2011,04,15,01,36,3.30
2011,04,15,01,37,3.30
2011,04,15,01,38,3.40
2011,04,15,01,39,3.30
2011,04,15,01,40,3.30
2011,04,15,01,41,3.30
2011,04,15,01,42,3.30
2011,04,15,01,43,3.30
2011,04,15,01,44,3.30
2011,04,15,01,45,3.30
2011,04,15,01,46,3.30
2011,04,15,01,47,3.30
2011,04,15,01,48,3.30
2011,04,15,01,49,3.30
2011,04,15,01,50,3.30
2011,04,15,01,51,3.30
2011,04,15,01,52,3.30
2011,04,15,01,53,3.30
2011,04,15,01,54,3.30
2011,04,15,01,55,3.30
2011,04,15,01,56,3.30
2011,04,15,01,57,3.20
2011,04,15,01,58,3.20
2011,04,15,01,59,3.20
2011,04,15,02,00,3.10
2011,04,15,02,01,3.10
2011,04,15,02,02,3.10
2011,04,15,02,03,3.10
2011,04,15,02,04,3.00
2011,04,15,02,05,2.90
2011,04,15,02,06,2.90
2011,04,15,02,07,2.90
2011,04,15,02,08,2.80
2011,04,15,02,09,2.80
2011,04,15,02,10,2.70
2011,04,15,02,11,2.70
2011,04,15,02,12,2.70
2011,04,15,02,13,2.70
2011,04,15,02,14,2.70
2011,04,15,02,15,2.70
2011,04,15,02,16,2.70
2011,04,15,02,17,2.70
2011,04,15,02,18,2.60
2011,04,15,02,19,2.60
2011,04,15,02,20,2.60
2011,04,15,02,21,2.50
2011,04,15,02,22,2.50
2011,04,15,02,23,2.50
2011,04,15,02,24,2.50
2011,04,15,02,25,2.40
2011,04,15,02,26,2.40
2011,04,15,02,27,2.40
2011,04,15,02,28,2.40
2011,04,15,02,29,2.40
2011,04,15,02,30,2.30
2011,04,15,02,31,2.30
2011,04,15,02,32,2.30
2011,04,15,02,33,2.30
2011,04,15,02,34,2.20
2011,04,15,02,35,2.20
2011,04,15,02,36,2.20
2011,04,15,02,37,2.20
2011,04,15,02,38,2.20
2011,04,15,02,39,2.20
2011,04,15,02,40,2.20
2011,04,15,02,41,2.10
2011,04,15,02,42,2.10
2011,04,15,02,43,2.10
2011,04,15,02,44,2.10
2011,04,15,02,45,2.00
2011,04,15,02,46,2.00
2011,04,15,02,47,2.00
2011,04,15,02,48,2.00
2011,04,15,02,49,2.00
2011,04,15,02,50,2.00
2011,04,15,02,51,1.90
2011,04,15,02,52,1.90
2011,04,15,02,53,1.90
2011,04,15,02,54,1.90
2011,04,15,02,55,1.90
2011,04,15,02,56,1.80
2011,04,15,02,57,1.80
2011,04,15,02,58,1.80
2011,04,15,02,59,1.80
2011,04,15,03,00,1.80
2011,04,15,03,01,1.80
2011,04,15,03,02,1.80
2011,04,15,03,03,1.80
2011,04,15,03,04,1.80
2011,04,15,03,05,1.80
2011,04,15,03,06,1.80
2011,04,15,03,07,1.80
2011,04,15,03,08,1.70
2011,04,15,03,09,1.70
2011,04,15,03,10,1.70
2011,04,15,03,11,1.70
2011,04,15,03,12,1.70
2011,04,15,03,13,1.70
2011,04,15,03,14,1.70
2011,04,15,03,15,1.70
2011,04,15,03,16,1.70
2011,04,15,03,17,1.70
2011,04,15,03,18,1.70
2011,04,15,03,19,1.60
2011,04,15,03,20,1.60
2011,04,15,03,21,1.60
2011,04,15,03,22,1.60
2011,04,15,03,23,1.60
2011,04,15,03,24,1.60
2011,04,15,03,25,1.60
2011,04,15,03,26,1.60
2011,04,15,03,27,1.60
2011,04,15,03,28,1.60
2011,04,15,03,29,1.60
2011,04,15,03,30,1.60
2011,04,15,03,31,1.60
2011,04,15,03,32,1.60
2011,04,15,03,33,1.60
2011,04,15,03,34,1.60
2011,04,15,03,35,1.60
2011,04,15,03,36,1.60
2011,04,15,03,37,1.50
2011,04,15,03,38,1.50
2011,04,15,03,39,1.50
2011,04,15,03,40,1.50
2011,04,15,03,41,1.50
2011,04,15,03,42,1.50
2011,04,15,03,43,1.50
2011,04,15,03,44,1.50
2011,04,15,03,45,1.50
2011,04,15,03,46,1.50
2011,04,15,03,47,1.50
2011,04,15,03,48,1.50
2011,04,15,03,49,1.50
2011,04,15,03,50,1.50
2011,04,15,03,51,1.50
2011,04,15,03,52,1.40
2011,04,15,03,53,1.40
2011,04,15,03,54,1.40
2011,04,15,03,55,1.40
2011,04,15,03,56,1.40
2011,04,15,03,57,1.40
2011,04,15,03,58,1.40
2011,04,15,03,59,1.40
2011,04,15,04,00,1.40
2011,04,15,04,01,1.40
2011,04,15,04,02,1.40
2011,04,15,04,03,1.40
2011,04,15,04,04,1.30
2011,04,15,04,05,1.30
2011,04,15,04,06,1.30
2011,04,15,04,07,1.30
2011,04,15,04,08,1.30
2011,04,15,04,09,1.30
2011,04,15,04,10,1.30
2011,04,15,04,11,1.30
2011,04,15,04,12,1.30
2011,04,15,04,13,1.30
2011,04,15,04,14,1.30
2011,04,15,04,15,1.30
2011,04,15,04,16,1.30
2011,04,15,04,17,1.30
2011,04,15,04,18,1.30
2011,04,15,04,19,1.30
2011,04,15,04,20,1.30
2011,04,15,04,21,1.30
2011,04,15,04,22,1.30
2011,04,15,04,23,1.30
2011,04,15,04,24,1.30
2011,04,15,04,25,1.30
2011,04,15,04,26,1.30
2011,04,15,04,27,1.30
2011,04,15,04,28,1.30
2011,04,15,04,29,1.30
2011,04,15,04,30,1.30
2011,04,15,04,31,1.30
2011,04,15,04,32,1.30
2011,04,15,04,33,1.30
2011,04,15,04,34,1.30
2011,04,15,04,35,1.30
2011,04,15,04,36,1.30
2011,04,15,04,37,1.30
2011,04,15,04,38,1.30
2011,04,15,04,39,1.20
2011,04,15,04,40,1.20
2011,04,15,04,41,1.20
2011,04,15,04,42,1.20
2011,04,15,04,43,1.20
2011,04,15,04,44,1.20
2011,04,15,04,45,1.20
2011,04,15,04,46,1.20
2011,04,15,04,47,1.20
2011,04,15,04,48,1.20
2011,04,15,04,49,1.20
2011,04,15,04,50,1.20
2011,04,15,04,51,1.20
2011,04,15,04,52,1.20
2011,04,15,04,53,1.20
2011,04,15,04,54,1.20
2011,04,15,04,55,1.20
2011,04,15,04,56,1.20
2011,04,15,04,57,1.20
2011,04,15,04,58,1.20
2011,04,15,04,59,1.20
2011,04,15,05,00,1.20
2011,04,15,05,01,1.20
2011,04,15,05,02,1.20
2011,04,15,05,03,1.20
2011,04,15,05,04,1.20
2011,04,15,05,05,1.20
2011,04,15,05,06,1.20
2011,04,15,05,07,1.20
2011,04,15,05,08,1.20
2011,04,15,05,09,1.20
2011,04,15,05,10,1.20
2011,04,15,05,11,1.20
2011,04,15,05,12,1.20
2011,04,15,05,13,1.10
2011,04,15,05,14,1.10
2011,04,15,05,15,1.10
2011,04,15,05,16,1.10
2011,04,15,05,17,1.10
2011,04,15,05,18,1.10
2011,04,15,05,19,1.10
2011,04,15,05,20,1.10
2011,04,15,05,21,1.00
2011,04,15,05,22,1.00
2011,04,15,05,23,1.00
2011,04,15,05,24,1.00
2011,04,15,05,25,1.00
2011,04,15,05,26,1.00
2011,04,15,05,27,1.00
2011,04,15,05,28,0.90
2011,04,15,05,29,0.90
2011,04,15,05,30,0.90
2011,04,15,05,31,0.90
2011,04,15,05,32,0.90
2011,04,15,05,33,0.90
2011,04,15,05,34,0.90
2011,04,15,05,35,0.90
2011,04,15,05,36,0.90
2011,04,15,05,37,0.90
2011,04,15,05,38,0.90
2011,04,15,05,39,0.90
2011,04,15,05,40,0.90
2011,04,15,05,41,0.90
2011,04,15,05,42,0.90
2011,04,15,05,43,0.90
2011,04,15,05,44,0.90
2011,04,15,05,45,0.80
2011,04,15,05,46,0.80
2011,04,15,05,47,0.80
2011,04,15,05,48,0.80
2011,04,15,05,49,0.80
2011,04,15,05,50,0.80
2011,04,15,05,51,0.80
2011,04,15,05,52,0.80
2011,04,15,05,53,0.80
2011,04,15,05,54,0.80
2011,04,15,05,55,0.80
2011,04,15,05,56,0.80
2011,04,15,05,57,0.80
2011,04,15,05,58,0.80
2011,04,15,05,59,0.80
2011,04,15,06,00,0.80
2011,04,15,06,01,0.80
2011,04,15,06,02,0.80
2011,04,15,06,03,0.80
2011,04,15,06,04,0.80
2011,04,15,06,05,0.80
2011,04,15,06,06,0.80
2011,04,15,06,07,0.80
2011,04,15,06,08,0.80
2011,04,15,06,09,0.80
2011,04,15,06,10,0.80
2011,04,15,06,11,0.80
2011,04,15,06,12,0.80
2011,04,15,06,13,0.80
2011,04,15,06,14,0.80
2011,04,15,06,15,0.80
2011,04,15,06,16,0.80
2011,04,15,06,17,0.80
2011,04,15,06,18,0.80
2011,04,15,06,19,0.80
2011,04,15,06,20,0.80
2011,04,15,06,21,0.80
2011,04,15,06,22,0.80
2011,04,15,06,23,0.80
2011,04,15,06,24,0.80
2011,04,15,06,25,0.80
2011,04,15,06,26,0.80
2011,04,15,06,27,0.80
2011,04,15,06,28,0.80
2011,04,15,06,29,0.80
2011,04,15,06,30,0.80
2011,04,15,06,31,0.80
2011,04,15,06,32,0.80
2011,04,15,06,33,0.80
2011,04,15,06,34,0.80
2011,04,15,06,35,0.80
2011,04,15,06,36,0.80
2011,04,15,06,37,0.80
2011,04,15,06,38,0.80
2011,04,15,06,39,0.80
2011,04,15,06,40,0.80
2011,04,15,06,41,0.80
2011,04,15,06,42,0.80
2011,04,15,06,43,0.80
2011,04,15,06,44,0.80
2011,04,15,06,45,0.80
2011,04,15,06,46,0.80
2011,04,15,06,47,0.80
2011,04,15,06,48,0.70
2011,04,15,06,49,0.70
2011,04,15,06,50,0.70
2011,04,15,06,51,0.70
2011,04,15,06,52,0.70
2011,04,15,06,53,0.70
2011,04,15,06,54,0.70
2011,04,15,06,55,0.70
2011,04,15,06,56,0.70
2011,04,15,06,57,0.70
2011,04,15,06,58,0.70
2011,04,15,06,59,0.70
2011,04,15,07,00,0.70
2011,04,15,07,01,0.70
2011,04,15,07,02,0.80
2011,04,15,07,03,0.80
2011,04,15,07,04,0.80
2011,04,15,07,05,0.80
2011,04,15,07,06,0.80
2011,04,15,07,07,0.80
2011,04,15,07,08,0.80
2011,04,15,07,09,0.80
2011,04,15,07,10,0.80
2011,04,15,07,11,0.80
2011,04,15,07,12,0.80
2011,04,15,07,13,0.80
2011,04,15,07,14,0.80
2011,04,15,07,15,0.80
2011,04,15,07,16,0.80
2011,04,15,07,17,0.80
2011,04,15,07,18,0.80
2011,04,15,07,19,0.80
2011,04,15,07,20,0.80
2011,04,15,07,21,0.80
2011,04,15,07,22,0.80
2011,04,15,07,23,0.80
2011,04,15,07,24,0.90
2011,04,15,07,25,0.90
2011,04,15,07,26,0.90
2011,04,15,07,27,0.90
2011,04,15,07,28,0.90
2011,04,15,07,29,0.90
2011,04,15,07,30,1.00
2011,04,15,07,31,1.00
2011,04,15,07,32,1.00
2011,04,15,07,33,1.00
2011,04,15,07,34,1.10
2011,04,15,07,35,1.10
2011,04,15,07,36,1.10
2011,04,15,07,37,1.10
2011,04,15,07,38,1.20
2011,04,15,07,39,1.20
2011,04,15,07,40,1.20
2011,04,15,07,41,1.20
2011,04,15,07,42,1.20
2011,04,15,07,43,1.30
2011,04,15,07,44,1.30
2011,04,15,07,45,1.30
2011,04,15,07,46,1.30
2011,04,15,07,47,1.30
2011,04,15,07,48,1.30
2011,04,15,07,49,1.30
2011,04,15,07,50,1.30
2011,04,15,07,51,1.40
2011,04,15,07,52,1.40
2011,04,15,07,53,1.40
2011,04,15,07,54,1.50
2011,04,15,07,55,1.50
2011,04,15,07,56,1.50
2011,04,15,07,57,1.50
2011,04,15,07,58,1.60
2011,04,15,07,59,1.60
2011,04,15,08,00,1.60
2011,04,15,08,01,1.70
2011,04,15,08,02,1.70
2011,04,15,08,03,1.70
2011,04,15,08,04,1.80
2011,04,15,08,05,1.80
2011,04,15,08,06,1.80
2011,04,15,08,07,1.80
2011,04,15,08,08,1.80
2011,04,15,08,09,1.90
2011,04,15,08,10,1.90
2011,04,15,08,11,2.00
2011,04,15,08,12,2.00
2011,04,15,08,13,2.10
2011,04,15,08,14,2.10
2011,04,15,08,15,2.10
2011,04,15,08,16,2.20
2011,04,15,08,17,2.20
2011,04,15,08,18,2.20
2011,04,15,08,19,2.30
2011,04,15,08,20,2.40
2011,04,15,08,21,2.50
2011,04,15,08,22,2.50
2011,04,15,08,23,2.60
2011,04,15,08,24,2.70
2011,04,15,08,25,2.80
2011,04,15,08,26,2.90
2011,04,15,08,27,3.00
2011,04,15,08,28,3.10
2011,04,15,08,29,3.10
2011,04,15,08,30,3.20
2011,04,15,08,31,3.30
2011,04,15,08,32,3.40
2011,04,15,08,33,3.50
2011,04,15,08,34,3.60
2011,04,15,08,35,3.70
2011,04,15,08,36,3.80
2011,04,15,08,37,3.80
2011,04,15,08,38,3.90
2011,04,15,08,39,4.00
2011,04,15,08,40,4.10
2011,04,15,08,41,4.20
2011,04,15,08,42,4.20
2011,04,15,08,43,4.30
2011,04,15,08,44,4.40
2011,04,15,08,45,4.50
2011,04,15,08,46,4.60
2011,04,15,08,47,4.60
2011,04,15,08,48,4.70
2011,04,15,08,49,4.80
2011,04,15,08,50,4.80
2011,04,15,08,51,4.90
2011,04,15,08,52,4.90
2011,04,15,08,53,4.90
2011,04,15,08,54,4.90
2011,04,15,08,55,4.90
2011,04,15,08,56,4.90
2011,04,15,08,57,4.90
2011,04,15,08,58,4.90
2011,04,15,08,59,5.10
2011,04,15,09,00,5.10
2011,04,15,09,01,5.10
2011,04,15,09,02,5.10
2011,04,15,09,03,5.20
2011,04,15,09,04,5.30
2011,04,15,09,05,5.30
2011,04,15,09,06,5.40
2011,04,15,09,07,5.50
2011,04,15,09,08,5.60
2011,04,15,09,09,5.60
2011,04,15,09,10,5.70
2011,04,15,09,11,5.70
2011,04,15,09,12,5.80
2011,04,15,09,13,5.90
2011,04,15,09,14,5.90
2011,04,15,09,15,5.90
2011,04,15,09,16,5.90
2011,04,15,09,17,6.00
2011,04,15,09,18,6.10
2011,04,15,09,19,6.20
2011,04,15,09,20,6.30
2011,04,15,09,21,6.50
2011,04,15,09,22,6.70
2011,04,15,09,23,6.70
2011,04,15,09,24,6.80
2011,04,15,09,25,6.80
2011,04,15,09,26,6.80
2011,04,15,09,27,6.90
2011,04,15,09,28,6.90
2011,04,15,09,29,6.80
2011,04,15,09,30,6.80
2011,04,15,09,31,6.80
2011,04,15,09,32,6.90
2011,04,15,09,33,7.00
2011,04,15,09,34,7.10
2011,04,15,09,35,7.20
2011,04,15,09,36,7.30
2011,04,15,09,37,7.30
2011,04,15,09,38,7.30
2011,04,15,09,39,7.20
2011,04,15,09,40,7.10
2011,04,15,09,41,7.10
2011,04,15,09,42,7.10
2011,04,15,09,43,7.10
2011,04,15,09,44,7.10
2011,04,15,09,45,7.20
2011,04,15,09,46,7.30
2011,04,15,09,47,7.40
2011,04,15,09,48,7.40
2011,04,15,09,49,7.30
2011,04,15,09,50,7.30
2011,04,15,09,51,7.30
2011,04,15,09,52,7.30
2011,04,15,09,53,7.30
2011,04,15,09,54,7.30
2011,04,15,09,55,7.30
2011,04,15,09,56,7.40
2011,04,15,09,57,7.40
2011,04,15,09,58,7.40
2011,04,15,09,59,7.40
2011,04,15,10,00,7.40
2011,04,15,10,01,7.40
2011,04,15,10,02,7.40
2011,04,15,10,03,7.40
2011,04,15,10,04,7.40
2011,04,15,10,05,7.30
2011,04,15,10,06,7.30
2011,04,15,10,07,7.30
2011,04,15,10,08,7.30
2011,04,15,10,09,7.30
2011,04,15,10,10,7.30
2011,04,15,10,11,7.30
2011,04,15,10,12,7.30
2011,04,15,10,13,7.30
2011,04,15,10,14,7.30
2011,04,15,10,15,7.30
2011,04,15,10,16,7.30
2011,04,15,10,17,7.30
2011,04,15,10,18,7.30
2011,04,15,10,19,7.30
2011,04,15,10,20,7.30
2011,04,15,10,21,7.30
2011,04,15,10,22,7.30
2011,04,15,10,23,7.30
2011,04,15,10,24,7.30
2011,04,15,10,25,7.30
2011,04,15,10,26,7.30
2011,04,15,10,27,7.40
2011,04,15,10,28,7.40
2011,04,15,10,29,7.50
2011,04,15,10,30,7.50
2011,04,15,10,31,7.50
2011,04,15,10,32,7.60
2011,04,15,10,33,7.60
2011,04,15,10,34,7.70
2011,04,15,10,35,7.70
2011,04,15,10,36,7.70
2011,04,15,10,37,7.80
2011,04,15,10,38,7.80
2011,04,15,10,39,7.80
2011,04,15,10,40,7.80
2011,04,15,10,41,7.80
2011,04,15,10,42,7.80
2011,04,15,10,43,7.80
2011,04,15,10,44,7.80
2011,04,15,10,45,7.80
2011,04,15,10,46,7.80
2011,04,15,10,47,7.80
2011,04,15,10,48,7.80
2011,04,15,10,49,7.80
2011,04,15,10,50,7.80
2011,04,15,10,51,7.70
2011,04,15,10,52,7.70
2011,04,15,10,53,7.70
2011,04,15,10,54,7.60
2011,04,15,10,55,7.50
2011,04,15,10,56,7.40
2011,04,15,10,57,7.40
2011,04,15,10,58,7.40
2011,04,15,10,59,7.50
2011,04,15,11,00,7.50
2011,04,15,11,01,7.60
2011,04,15,11,02,7.70
2011,04,15,11,03,7.80
2011,04,15,11,04,7.90
2011,04,15,11,05,7.90
2011,04,15,11,06,7.90
2011,04,15,11,07,7.90
2011,04,15,11,08,7.90
2011,04,15,11,09,7.90
2011,04,15,11,10,8.00
2011,04,15,11,11,8.00
2011,04,15,11,12,8.10
2011,04,15,11,13,8.20
2011,04,15,11,14,8.20
2011,04,15,11,15,8.10
2011,04,15,11,16,8.00
2011,04,15,11,17,7.80
2011,04,15,11,18,7.70
2011,04,15,11,19,7.70
2011,04,15,11,20,7.80
2011,04,15,11,21,8.00
2011,04,15,11,22,8.20
2011,04,15,11,23,8.20
2011,04,15,11,24,8.20
2011,04,15,11,25,8.20
2011,04,15,11,26,8.20
2011,04,15,11,27,8.20
2011,04,15,11,28,8.10
2011,04,15,11,29,8.10
2011,04,15,11,30,8.00
2011,04,15,11,31,7.90
2011,04,15,11,32,7.90
2011,04,15,11,33,7.80
2011,04,15,11,34,7.80
2011,04,15,11,35,7.80
2011,04,15,11,36,7.80
2011,04,15,11,37,7.90
2011,04,15,11,38,8.00
2011,04,15,11,39,8.00
2011,04,15,11,40,7.90
2011,04,15,11,41,7.90
2011,04,15,11,42,7.80
2011,04,15,11,43,7.80
2011,04,15,11,44,7.70
2011,04,15,11,45,7.70
2011,04,15,11,46,7.60
2011,04,15,11,47,7.60
2011,04,15,11,48,7.60
2011,04,15,11,49,7.60
2011,04,15,11,50,7.60
2011,04,15,11,51,7.60
2011,04,15,11,52,7.60
2011,04,15,11,53,7.50
2011,04,15,11,54,7.50
2011,04,15,11,55,7.60
2011,04,15,11,56,7.60
2011,04,15,11,57,7.60
2011,04,15,11,58,7.60
2011,04,15,11,59,7.70
2011,04,15,12,00,7.70
2011,04,15,12,01,7.80
2011,04,15,12,02,7.70
2011,04,15,12,03,7.70
2011,04,15,12,04,7.70
2011,04,15,12,05,7.80
2011,04,15,12,06,7.80
2011,04,15,12,07,7.80
2011,04,15,12,08,7.80
2011,04,15,12,09,7.80
2011,04,15,12,10,7.80
2011,04,15,12,11,7.90
2011,04,15,12,12,7.90
2011,04,15,12,13,8.00
2011,04,15,12,14,8.10
2011,04,15,12,15,8.20
2011,04,15,12,16,8.20
2011,04,15,12,17,8.30
2011,04,15,12,18,8.30
2011,04,15,12,19,8.40
2011,04,15,12,20,8.40
2011,04,15,12,21,8.50
2011,04,15,12,22,8.50
2011,04,15,12,23,8.50
2011,04,15,12,24,8.50
2011,04,15,12,25,8.50
2011,04,15,12,26,8.40
2011,04,15,12,27,8.40
2011,04,15,12,28,8.40
2011,04,15,12,29,8.30
2011,04,15,12,30,8.20
2011,04,15,12,31,8.30
2011,04,15,12,32,8.30
2011,04,15,12,33,8.30
2011,04,15,12,34,8.40
2011,04,15,12,35,8.50
2011,04,15,12,36,8.50
2011,04,15,12,37,8.50
2011,04,15,12,38,8.50
2011,04,15,12,39,8.50
2011,04,15,12,40,8.50
2011,04,15,12,41,8.60
2011,04,15,12,42,8.70
2011,04,15,12,43,8.70
2011,04,15,12,44,8.80
2011,04,15,12,45,8.90
2011,04,15,12,46,8.90
2011,04,15,12,47,9.00
2011,04,15,12,48,9.00
2011,04,15,12,49,9.00
2011,04,15,12,50,8.90
2011,04,15,12,51,8.90
2011,04,15,12,52,8.80
2011,04,15,12,53,8.80
2011,04,15,12,54,8.80
2011,04,15,12,55,8.70
2011,04,15,12,56,8.70
2011,04,15,12,57,8.70
2011,04,15,12,58,8.60
2011,04,15,12,59,8.60
2011,04,15,13,00,8.60
2011,04,15,13,01,8.60
2011,04,15,13,02,8.60
2011,04,15,13,03,8.60
2011,04,15,13,04,8.60
2011,04,15,13,05,8.60
2011,04,15,13,06,8.50
2011,04,15,13,07,8.50
2011,04,15,13,08,8.50
2011,04,15,13,09,8.50
2011,04,15,13,10,8.40
2011,04,15,13,11,8.50
2011,04,15,13,12,8.50
2011,04,15,13,13,8.60
2011,04,15,13,14,8.60
2011,04,15,13,15,8.70
2011,04,15,13,16,8.70
2011,04,15,13,17,8.70
2011,04,15,13,18,8.70
2011,04,15,13,19,8.70
2011,04,15,13,20,8.70
2011,04,15,13,21,8.70
2011,04,15,13,22,8.70
2011,04,15,13,23,8.70
2011,04,15,13,24,8.60
2011,04,15,13,25,8.60
2011,04,15,13,26,8.60
2011,04,15,13,27,8.70
2011,04,15,13,28,8.60
2011,04,15,13,29,8.60
2011,04,15,13,30,8.60
2011,04,15,13,31,8.60
2011,04,15,13,32,8.60
2011,04,15,13,33,8.50
2011,04,15,13,34,8.50
2011,04,15,13,35,8.40
2011,04,15,13,36,8.30
2011,04,15,13,37,8.30
2011,04,15,13,38,8.30
2011,04,15,13,39,8.30
2011,04,15,13,40,8.30
2011,04,15,13,41,8.30
2011,04,15,13,42,8.40
2011,04,15,13,43,8.40
2011,04,15,13,44,8.50
2011,04,15,13,45,8.50
2011,04,15,13,46,8.60
2011,04,15,13,47,8.70
2011,04,15,13,48,8.70
2011,04,15,13,49,8.80
2011,04,15,13,50,8.90
2011,04,15,13,51,9.00
2011,04,15,13,52,9.10
2011,04,15,13,53,9.20
2011,04,15,13,54,9.20
2011,04,15,13,55,9.20
2011,04,15,13,56,9.20
2011,04,15,13,57,9.20
2011,04,15,13,58,9.10
2011,04,15,13,59,9.10
2011,04,15,14,00,9.00
2011,04,15,14,01,9.00
2011,04,15,14,02,8.90
2011,04,15,14,03,8.80
2011,04,15,14,04,8.70
2011,04,15,14,05,8.70
2011,04,15,14,06,8.60
2011,04,15,14,07,8.60
2011,04,15,14,08,8.70
2011,04,15,14,09,8.70
2011,04,15,14,10,8.80
2011,04,15,14,11,8.80
2011,04,15,14,12,8.80
2011,04,15,14,13,8.70
2011,04,15,14,14,8.60
2011,04,15,14,15,8.60
2011,04,15,14,16,8.60
2011,04,15,14,17,8.60
2011,04,15,14,18,8.60
2011,04,15,14,19,8.60
2011,04,15,14,20,8.50
2011,04,15,14,21,8.50
2011,04,15,14,22,8.40
2011,04,15,14,23,8.40
2011,04,15,14,24,8.50
2011,04,15,14,25,8.60
2011,04,15,14,26,8.60
2011,04,15,14,27,8.60
2011,04,15,14,28,8.50
2011,04,15,14,29,8.50
2011,04,15,14,30,8.50
2011,04,15,14,31,8.50
2011,04,15,14,32,8.50
2011,04,15,14,33,8.50
2011,04,15,14,34,8.40
2011,04,15,14,35,8.40
2011,04,15,14,36,8.40
2011,04,15,14,37,8.30
2011,04,15,14,38,8.20
2011,04,15,14,39,8.20
2011,04,15,14,40,8.20
2011,04,15,14,41,8.20
2011,04,15,14,42,8.20
2011,04,15,14,43,8.20
2011,04,15,14,44,8.20
2011,04,15,14,45,8.20
2011,04,15,14,46,8.20
2011,04,15,14,47,8.20
2011,04,15,14,48,8.20
2011,04,15,14,49,8.20
2011,04,15,14,50,8.20
2011,04,15,14,51,8.20
2011,04,15,14,52,8.20
2011,04,15,14,53,8.20
2011,04,15,14,54,8.20
2011,04,15,14,55,8.10
2011,04,15,14,56,8.10
2011,04,15,14,57,8.10
2011,04,15,14,58,8.00
2011,04,15,14,59,8.00
2011,04,15,15,00,7.90
2011,04,15,15,01,7.90
2011,04,15,15,02,7.90
2011,04,15,15,03,7.90
2011,04,15,15,04,7.90
2011,04,15,15,05,7.90
2011,04,15,15,06,7.90
2011,04,15,15,07,7.90
2011,04,15,15,08,7.90
2011,04,15,15,09,8.00
2011,04,15,15,10,8.00
2011,04,15,15,11,8.10
2011,04,15,15,12,8.20
2011,04,15,15,13,8.10
2011,04,15,15,14,8.00
2011,04,15,15,15,8.00
2011,04,15,15,16,7.90
2011,04,15,15,17,7.90
2011,04,15,15,18,7.90
2011,04,15,15,19,7.90
2011,04,15,15,20,7.90
2011,04,15,15,21,7.90
2011,04,15,15,22,7.90
2011,04,15,15,23,7.90
2011,04,15,15,24,7.90
2011,04,15,15,25,7.90
2011,04,15,15,26,7.90
2011,04,15,15,27,8.00
2011,04,15,15,28,8.00
2011,04,15,15,29,8.00
2011,04,15,15,30,8.10
2011,04,15,15,31,8.20
2011,04,15,15,32,8.20
2011,04,15,15,33,8.20
2011,04,15,15,34,8.20
2011,04,15,15,35,8.30
2011,04,15,15,36,8.30
2011,04,15,15,37,8.30
2011,04,15,15,38,8.30
2011,04,15,15,39,8.30
2011,04,15,15,40,8.30
2011,04,15,15,41,8.20
2011,04,15,15,42,8.20
2011,04,15,15,43,8.20
2011,04,15,15,44,8.20
2011,04,15,15,45,8.20
2011,04,15,15,46,8.20
2011,04,15,15,47,8.20
2011,04,15,15,48,8.20
2011,04,15,15,49,8.20
2011,04,15,15,50,8.20
2011,04,15,15,51,8.20
2011,04,15,15,52,8.20
2011,04,15,15,53,8.20
2011,04,15,15,54,8.10
2011,04,15,15,55,8.10
2011,04,15,15,56,8.10
2011,04,15,15,57,8.10
2011,04,15,15,58,8.10
2011,04,15,15,59,8.20
2011,04,15,16,00,8.20
2011,04,15,16,01,8.20
2011,04,15,16,02,8.20
2011,04,15,16,03,8.20
2011,04,15,16,04,8.20
2011,04,15,16,05,8.10
2011,04,15,16,06,8.10
2011,04,15,16,07,8.10
2011,04,15,16,08,8.10
2011,04,15,16,09,8.10
2011,04,15,16,10,8.10
2011,04,15,16,11,8.10
2011,04,15,16,12,8.10
2011,04,15,16,13,8.10
2011,04,15,16,14,8.10
2011,04,15,16,15,8.10
2011,04,15,16,16,8.10
2011,04,15,16,17,8.00
2011,04,15,16,18,8.00
2011,04,15,16,19,8.00
2011,04,15,16,20,8.00
2011,04,15,16,21,8.00
2011,04,15,16,22,8.00
2011,04,15,16,23,7.90
2011,04,15,16,24,7.90
2011,04,15,16,25,7.90
2011,04,15,16,26,7.90
2011,04,15,16,27,7.90
2011,04,15,16,28,7.90
2011,04,15,16,29,7.90
2011,04,15,16,30,7.90
2011,04,15,16,31,7.80
2011,04,15,16,32,7.80
2011,04,15,16,33,7.80
2011,04,15,16,34,7.80
2011,04,15,16,35,7.80
2011,04,15,16,36,7.80
2011,04,15,16,37,7.80
2011,04,15,16,38,7.70
2011,04,15,16,39,7.70
2011,04,15,16,40,7.70
2011,04,15,16,41,7.70
2011,04,15,16,42,7.70
2011,04,15,16,43,7.70
2011,04,15,16,44,7.70
2011,04,15,16,45,7.70
2011,04,15,16,46,7.60
2011,04,15,16,47,7.60
2011,04,15,16,48,7.60
2011,04,15,16,49,7.60
2011,04,15,16,50,7.60
2011,04,15,16,51,7.60
2011,04,15,16,52,7.60
2011,04,15,16,53,7.60
2011,04,15,16,54,7.60
2011,04,15,16,55,7.50
2011,04,15,16,56,7.50
2011,04,15,16,57,7.50
2011,04,15,16,58,7.50
2011,04,15,16,59,7.50
2011,04,15,17,00,7.50
2011,04,15,17,01,7.50
2011,04,15,17,02,7.40
2011,04,15,17,03,7.40
2011,04,15,17,04,7.40
2011,04,15,17,05,7.40
2011,04,15,17,06,7.40
2011,04,15,17,07,7.40
2011,04,15,17,08,7.40
2011,04,15,17,09,7.40
2011,04,15,17,10,7.30
2011,04,15,17,11,7.30
2011,04,15,17,12,7.30
2011,04,15,17,13,7.30
2011,04,15,17,14,7.30
2011,04,15,17,15,7.30
2011,04,15,17,16,7.30
2011,04,15,17,17,7.30
2011,04,15,17,18,7.30
2011,04,15,17,19,7.30
2011,04,15,17,20,7.30
2011,04,15,17,21,7.30
2011,04,15,17,22,7.30
2011,04,15,17,23,7.30
2011,04,15,17,24,7.30
2011,04,15,17,25,7.30
2011,04,15,17,26,7.30
2011,04,15,17,27,7.30
2011,04,15,17,28,7.30
2011,04,15,17,29,7.30
2011,04,15,17,30,7.30
2011,04,15,17,31,7.30
2011,04,15,17,32,7.30
2011,04,15,17,33,7.30
2011,04,15,17,34,7.30
2011,04,15,17,35,7.30
2011,04,15,17,36,7.30
2011,04,15,17,37,7.30
2011,04,15,17,38,7.30
2011,04,15,17,39,7.30
2011,04,15,17,40,7.30
2011,04,15,17,41,7.30
2011,04,15,17,42,7.30
2011,04,15,17,43,7.30
2011,04,15,17,44,7.20
2011,04,15,17,45,7.20
2011,04,15,17,46,7.20
2011,04,15,17,47,7.20
2011,04,15,17,48,7.10
2011,04,15,17,49,7.10
2011,04,15,17,50,7.10
2011,04,15,17,51,7.10
2011,04,15,17,52,7.10
2011,04,15,17,53,7.00
2011,04,15,17,54,7.00
2011,04,15,17,55,6.90
2011,04,15,17,56,6.90
2011,04,15,17,57,6.90
2011,04,15,17,58,6.90
2011,04,15,17,59,6.90
2011,04,15,18,00,6.80
2011,04,15,18,01,6.80
2011,04,15,18,02,6.80
2011,04,15,18,03,6.80
2011,04,15,18,04,6.80
2011,04,15,18,05,6.80
2011,04,15,18,06,6.70
2011,04,15,18,07,6.70
2011,04,15,18,08,6.70